Weather History for KMTH - May, 2012

Change the Weather History Date:

Tuesday, May 1, 2012

  Actual Average Record
Temperature  
Mean Temperature 77 °F 79 °F  
Max Temperature 82 °F 84 °F 89 °F (2002)
Min Temperature 72 °F 74 °F 69 °F (2006)
Degree Days  
Heating Degree Days 0 0  
Month to date heating degree days 0 0  
Since 1 July heating degree days 33 81  
Cooling Degree Days 12 14  
Month to date cooling degree days 12 14  
Year to date cooling degree days 1322 1050  
Growing Degree Days 26 (Base 50)    
Moisture  
Dew Point 72 °F    
Average Humidity 87    
Maximum Humidity 100    
Minimum Humidity 74    
Precipitation  
Precipitation 1.01 in 0.10 in 1.58 in (2013)
Month to date precipitation 1.01 0.10  
Year to date precipitation 15.29 8.69  
Snow  
Snow 0.00 in - - ()
Month to date snowfall 0.0  
Since 1 July snowfall 0.0  
Snow Depth 0.00 in    
Sea Level Pressure  
Sea Level Pressure 29.98 in    
Wind  
Wind Speed 11 mph (East)    
Max Wind Speed 17 mph    
Max Gust Speed 26 mph    
Visibility 7 miles    
Events Rain    
T = Trace of Precipitation, MM = Missing Value Source: NWS Daily Summary

Daily Weather History Graph

Daily Weather History Graph

Search for Another Location

Airport or City:

Trip Planner

Search our weather history database for the weather conditions in past years. The results will help you decide how hot, cold, wet, or windy it might be!

Date:

Astronomy

May. 01, 2012 Rise Set
Actual Time 6:48 AM EDT 7:54 PM EDT
Civil Twilight 6:24 AM EDT 8:18 PM EDT
Nautical Twilight 5:56 AM EDT 8:46 PM EDT
Astronomical Twilight 5:26 AM EDT 9:15 PM EDT
Moon 3:24 PM EDT (5/1) 3:12 AM EDT (5/1)
Length of Visible Light 13h 53m
Length of Day
13h 05m
Waxing Gibbous, 73% of the Moon is Illuminated
May 1
Waxing Gibbous
May 5
Full
May 12
Last Quarter
May 20
New
May 28
First Quarter

Hourly Weather History & Observations

Time (EDT) Temp. Heat Index Dew Point Humidity Pressure Visibility Wind Dir Wind Speed Gust Speed Precip Events Conditions
12:24 AM 75.2 °F - 69.8 °F 83% 29.96 in 10.0 mi ESE 9.2 mph 23.0 mph N/A   Overcast
1:53 AM 77.0 °F - 70.0 °F 79% 29.96 in 10.0 mi ESE 16.1 mph 25.3 mph N/A   Mostly Cloudy
2:53 AM 77.0 °F - 70.0 °F 79% 29.95 in 10.0 mi ESE 11.5 mph 21.9 mph N/A   Mostly Cloudy
3:53 AM 75.9 °F - 70.0 °F 82% 29.94 in 10.0 mi East 12.7 mph 20.7 mph N/A   Overcast
4:53 AM 77.0 °F - 71.1 °F 82% 29.94 in 10.0 mi East 10.4 mph 17.3 mph N/A   Overcast
5:12 AM 75.2 °F - 71.6 °F 89% 29.94 in 10.0 mi East 11.5 mph 17.3 mph 0.00 in Rain Light Rain
5:43 AM 75.2 °F - 71.6 °F 89% 29.94 in 10.0 mi East 12.7 mph 20.7 mph 0.00 in   Mostly Cloudy
5:53 AM 75.0 °F - 71.1 °F 87% 29.95 in 4.0 mi East 16.1 mph 25.3 mph 0.05 in Rain Light Rain
5:56 AM 73.4 °F - 69.8 °F 88% 29.95 in 1.8 mi ESE 12.7 mph 25.3 mph 0.08 in Rain Heavy Rain
6:12 AM 73.4 °F - 71.6 °F 94% 29.96 in 3.0 mi East 8.1 mph 19.6 mph 0.20 in Rain Heavy Rain
6:53 AM 73.0 °F - 73.0 °F 100% 29.97 in 5.0 mi East 8.1 mph 17.3 mph 0.24 in Rain Rain
7:00 AM 73.4 °F - 73.4 °F 100% 29.97 in 3.0 mi East 10.4 mph - 0.02 in Rain Rain
7:09 AM 73.4 °F - 73.4 °F 100% 29.97 in 5.0 mi East 11.5 mph - 0.03 in Rain Light Rain
7:47 AM 71.6 °F - 71.6 °F 100% 29.99 in 1.5 mi East 13.8 mph 21.9 mph 0.15 in Rain Heavy Rain
8:01 AM 73.4 °F - 73.4 °F 100% 29.99 in 3.0 mi East 8.1 mph - 0.01 in Rain Light Rain
8:40 AM 73.4 °F - 73.4 °F 100% 30.00 in 10.0 mi East 12.7 mph 20.7 mph 0.01 in   Overcast
9:02 AM 75.2 °F - 75.2 °F 100% 30.00 in 10.0 mi East 9.2 mph - N/A   Overcast
9:53 AM 75.0 °F - 72.0 °F 90% 30.01 in 10.0 mi ESE 6.9 mph 20.7 mph 0.01 in Rain Light Rain
10:03 AM 75.2 °F - 71.6 °F 89% 30.01 in 8.0 mi East 9.2 mph 17.3 mph N/A   Overcast
10:53 AM 78.1 °F - 72.0 °F 81% 30.01 in 10.0 mi East 10.4 mph - N/A   Mostly Cloudy
12:53 PM 80.1 °F 83.6 °F 71.1 °F 74% 30.02 in 10.0 mi East 9.2 mph 18.4 mph 0.00 in   Overcast
1:41 PM 75.2 °F - 73.4 °F 94% 30.01 in 1.8 mi ESE 15.0 mph 20.7 mph 0.05 in Rain Heavy Rain
1:50 PM 75.2 °F - 71.6 °F 89% 30.01 in 0.8 mi East 9.2 mph 20.7 mph 0.17 in Rain Rain
1:53 PM 75.0 °F - 72.0 °F 90% 30.00 in 1.2 mi East 11.5 mph 19.6 mph 0.18 in Rain Rain
1:55 PM 75.2 °F - 71.6 °F 89% 30.00 in 2.5 mi East 10.4 mph 19.6 mph 0.00 in Rain Light Rain
2:02 PM 75.2 °F - 71.6 °F 89% 30.01 in 8.0 mi ESE 11.5 mph 19.6 mph 0.00 in Rain Light Rain
2:09 PM 75.2 °F - 71.6 °F 89% 30.01 in 7.0 mi SE 11.5 mph 19.6 mph 0.00 in Rain Light Rain
2:13 PM 75.2 °F - 71.6 °F 89% 30.01 in 1.5 mi SE 17.3 mph 23.0 mph 0.10 in Rain Rain
2:22 PM - - - N/A% 30.01 in 0.5 mi Variable 6.9 mph 23.0 mph 0.26 in Rain Heavy Rain
2:30 PM - - - N/A% 30.00 in 2.0 mi ESE 10.4 mph 16.1 mph 0.28 in Rain Rain
2:39 PM - - - N/A% 30.00 in 4.0 mi East 9.2 mph - 0.28 in Rain Light Rain
2:53 PM 75.0 °F - 72.0 °F 90% 29.99 in 7.0 mi East 11.5 mph 19.6 mph 0.29 in Rain Light Rain
3:25 PM 73.4 °F - 71.6 °F 94% 29.98 in 9.0 mi East 11.5 mph 18.4 mph 0.01 in   Overcast
4:53 PM 77.0 °F - 72.0 °F 84% 29.96 in 10.0 mi East 9.2 mph - N/A   Overcast
5:53 PM 79.0 °F - 71.1 °F 77% 29.95 in 10.0 mi East 11.5 mph 17.3 mph 0.00 in   Scattered Clouds
6:53 PM 78.1 °F - 70.0 °F 76% 29.96 in 10.0 mi East 13.8 mph 21.9 mph N/A   Clear
7:53 PM 77.0 °F - 70.0 °F 79% 29.98 in 10.0 mi East 12.7 mph 20.7 mph N/A   Partly Cloudy
8:53 PM 77.0 °F - 71.1 °F 82% 29.99 in 10.0 mi East 13.8 mph 21.9 mph N/A   Overcast
9:53 PM 77.0 °F - 70.0 °F 79% 30.00 in 10.0 mi East 9.2 mph 18.4 mph N/A   Clear
10:53 PM 77.0 °F - 71.1 °F 82% 30.01 in 10.0 mi East 11.5 mph 20.7 mph N/A   Mostly Cloudy
11:53 PM 77.0 °F - 70.0 °F 79% 30.01 in 10.0 mi East 10.4 mph 18.4 mph N/A   Clear